STARLINK-5334, 56509

Orbit data source: Space-Track

STARLINK-5334, 56509 is a payload satellite owned by SpaceX/Seattle (US) in LEO that was launched on Sun, 14 May 2023 UTC via an FALCON 9 launch vehicle from the Air Force Eastern Test Range (AFETR). Payload-class satellites include a variety of spacecraft equipped with specific instruments for various scientific and technological missions. These include communications satellites like Starlink; space stations such as the ISS; scientific satellites like the Hubble; Earth observation satellites from companies like Planet Labs, Umbra, and HawkEye 360; GPS; miniature CubeSats for education and research; and military/defense satellites.

Loading next visibility...
Identifier
56509, 2023-065G
Orbit
LEO
Country
Flag of USUS
Related business
Manufacturer
SpaceX/Seattle
Mission
Operational Commercial Communications
Bus & Motor
STARLINK, Unknown motor
Mass
305 kg wet, ~290 kg dry
Launch date (UTC)
2023-05-14 (3 years ago)
Launch vehicle
FALCON 9
Launch site
Air Force Eastern Test Range (AFETR)
Object type
Payload
Rocket body
Debris
Shape & HBR
Box + 1 Pan, 10.1 m
Radar Cross Section
11.087 m², Large (>1 m²)

Expand to show TLE details & history
Last TLE update: 3 days ago

TLE from 3 days ago
0 STARLINK-5334
1 56509U 23065G   26170.50384233  .00000511  00000-0  28090-4 0  9995
2 56509  43.0049 357.2544 0001588 266.2251  93.8419 15.27578346172173
Epoch: 2026-06-19T12:05Z
TLE epoch observation values (Epoch: 2026-06-19T12:05:31.977Z)
Latitude
-0.00002°
Longitude
-91.86074°
Altitude
482.903 km
Speed
7.626 km/s
True Right ascension
23h 49m 01s
True Declination
0° 00' 00"
Sunlit
Object was in daylight at epoch
Visualization orbit readout
Latitude
Unknown
Longitude
Unknown
Altitude
Unknown
Speed
Unknown
Apparent Right ascension
Unknown
Apparent Declination
Unknown
Sunlit
N/A
Visualization observer readout
Local Sidereal Time
21:33:07
Azimuth
Unknown
Elevation
Unknown
Doppler factor
Unknown
Orbital elements
Apogee altitude
486.088 km
Perigee altitude
483.909 km
Semi-major axis
6,863.135 km
Eccentricity
0.00016
Inclination
43.0049°
RAAN
357.2544°
Arg. of periapsis
266.2251°
True anomaly
93.86006°
Mean anomaly
93.8419°
Eccentric anomaly
93.85098°
Mean motion
3.81733 °/min
Orbital period
94.31 mins
BSTAR
0.00002809
Loading maneuver chart data...
Computing Atmospheric mass density...
Loading historical data...
Loading historical data...
Loading historical data...
Loading historical data...
Loading historical data...
Loading historical data...
Loading historical data...

Documentation

Showing up to 5 results
|